RH
40 42 44 46 46 46 46 48 48 47 47 47 48 48 49 51 54 58 63 69 77 80 77 77 79 79 80 79 75 71 67 68 74 76 72 74 77 79 79 76 72 72 77 79 77 73 72 75 79 79 79 80 79 77 76 78 79 79 78 75 74 74 74 76 77 72 69 72 72 70 68 64 61 61 59 58 59 64 69 70 69 68 68 67 68
40 42 45 49 49 48 47 48 48 48 47 48 47 47 52 58 61 66 69 71 74 77 77 77 79 79 79 80 82 81 74 71 77 81 79 79 82 85 86 83 81 79 77 76 75 76 78 80 79 77 76 78 80 80 79 80 81 80 79 77 75 76 77 77 78 76 71 70 71 70 67 63 59 60 60 58 57 58 63 69 70 68 67 68 70
44 43 46 50 51 51 50 49 49 50 49 49 51 53 62 71 74 75 77 76 75 76 77 79 80 79 78 78 82 83 76 74 81 85 83 82 86 91 90 86 85 84 80 77 77 79 82 82 80 78 77 77 79 80 79 78 79 80 79 79 77 77 78 79 80 80 76 71 69 69 67 63 59 60 60 59 59 59 60 65 69 69 68 69 71
52 48 46 48 51 52 51 49 49 51 50 50 54 63 73 78 78 78 79 79 78 77 77 78 78 79 80 82 87 87 83 82 86 86 82 81 85 90 90 87 82 79 78 77 77 77 78 77 76 75 74 75 76 78 77 76 77 80 81 81 80 77 76 78 79 79 77 72 67 67 67 64 61 61 61 61 63 65 64 65 68 71 71 70 70
58 56 51 48 49 52 54 51 51 56 58 55 55 65 78 80 78 78 78 78 79 78 77 78 80 84 84 84 84 79 76 81 86 86 83 82 86 87 87 87 83 80 79 77 76 76 76 75 73 72 72 72 74 76 76 76 76 79 83 85 82 78 75 75 76 77 77 74 69 64 63 63 60 60 63 63 63 65 66 66 66 67 68 68 70
61 63 58 52 50 55 59 58 60 68 72 67 59 62 74 77 75 74 73 74 77 76 76 78 79 77 72 72 72 64 60 64 68 73 74 75 84 89 87 86 84 81 80 79 77 78 78 76 73 71 71 70 71 73 74 74 73 75 81 87 85 81 78 77 78 79 79 77 71 63 61 62 60 59 63 65 63 63 63 63 63 64 66 67 67
64 67 65 59 60 64 65 63 68 77 80 74 68 65 66 68 70 71 70 72 75 75 76 77 75 69 65 69 72 67 64 63 63 68 69 69 81 91 89 85 83 79 78 77 76 77 78 77 75 75 75 73 73 76 77 78 77 74 77 83 85 84 82 80 81 82 82 79 74 68 65 65 63 61 64 67 66 65 66 66 64 64 68 69 68
64 69 70 70 71 72 68 66 72 80 80 75 74 71 65 64 68 71 71 71 73 74 75 75 74 72 71 74 75 70 69 71 72 73 72 71 81 89 87 85 83 79 77 76 75 77 76 74 76 76 73 72 74 77 78 79 79 77 76 77 79 81 82 83 83 82 82 82 78 76 75 72 69 65 64 68 71 70 73 74 70 68 70 71 70
65 69 72 75 75 74 70 68 71 78 79 75 74 72 68 69 71 70 68 69 71 72 73 72 73 73 72 73 74 72 70 72 73 74 74 75 80 82 81 81 80 77 76 75 76 77 74 71 73 73 70 72 77 78 77 78 79 78 77 76 76 78 79 81 82 81 82 84 81 81 82 78 75 73 69 70 76 79 79 80 77 74 75 74 72
69 70 71 72 73 73 71 69 70 74 75 74 73 72 70 72 72 69 66 66 68 70 71 71 71 71 70 70 72 73 71 70 72 76 80 83 82 79 77 76 76 75 76 78 79 78 76 75 76 75 75 77 79 80 80 81 81 80 79 79 78 79 80 79 81 82 84 85 84 85 86 82 80 83 81 78 82 87 87 87 84 80 79 78 75
73 73 72 71 71 73 72 70 71 73 73 73 74 73 71 72 71 69 68 68 69 70 69 68 69 69 70 70 70 72 72 71 74 78 83 86 84 82 81 81 79 78 79 81 82 81 80 80 79 77 76 77 77 78 79 80 83 84 84 84 83 83 84 83 82 82 84 86 87 89 92 89 87 89 89 88 89 91 92 92 90 88 86 85 81
72 72 71 69 68 71 71 70 71 73 72 72 73 73 73 72 71 69 69 70 71 71 69 68 69 70 72 71 69 70 71 71 73 77 82 85 85 84 84 84 84 83 81 80 80 80 79 77 75 73 74 76 77 78 78 79 82 84 83 84 85 86 87 85 83 83 85 88 90 92 94 94 92 91 91 92 93 93 92 92 92 92 93 93 90
70 70 68 66 65 67 69 70 70 70 70 72 74 75 73 73 72 71 71 72 72 73 73 71 70 71 72 72 71 71 71 70 71 73 77 80 83 84 84 84 84 84 83 81 81 80 78 76 74 73 75 78 78 77 77 79 82 83 83 82 81 79 78 77 77 79 82 87 91 93 95 96 95 92 91 93 95 96 95 93 92 92 94 96 94
67 67 66 66 65 65 67 70 69 68 69 71 75 77 75 74 74 73 73 73 73 74 75 74 73 73 74 74 75 75 73 71 70 71 74 79 81 82 82 82 84 85 85 85 83 81 80 78 77 77 79 79 79 79 79 80 80 78 76 73 71 70 70 71 73 76 79 82 86 88 89 91 91 89 90 93 96 99 100 99 98 97 97 98 98
66 68 69 68 66 64 65 68 68 69 71 72 75 79 78 75 75 76 76 76 75 76 77 76 75 75 76 77 78 79 78 75 72 69 72 78 80 78 79 82 84 85 85 85 84 83 83 81 80 82 84 84 84 82 78 75 71 68 68 69 70 70 71 71 71 73 74 75 76 76 76 77 78 78 79 83 87 90 94 95 95 96 96 95 95
65 67 69 68 66 63 63 65 68 71 72 71 71 75 78 77 77 78 78 79 81 82 82 81 80 77 75 76 79 82 82 79 76 73 72 77 79 78 81 85 85 85 84 85 85 84 82 82 84 87 88 85 80 74 68 64 63 64 66 67 65 62 59 60 61 63 66 68 69 70 69 69 71 74 76 81 87 90 92 91 91 93 96 96 91
66 66 67 68 68 66 63 65 68 68 68 68 66 67 73 78 79 80 83 87 90 91 89 87 85 81 78 77 79 83 85 84 82 78 75 77 81 84 88 90 88 87 88 87 85 83 83 86 88 86 81 73 65 59 56 55 57 58 56 53 51 52 55 61 68 72 75 77 78 78 78 79 83 85 88 93 97 99 98 97 97 98 100 100 97
71 70 68 68 69 65 58 59 66 70 69 68 67 65 68 73 79 86 94 96 94 93 94 93 92 89 87 87 89 89 89 87 85 83 82 82 84 90 95 95 91 91 90 86 84 85 87 87 82 73 62 52 45 43 42 43 45 45 43 45 51 57 65 73 77 80 83 86 87 88 90 93 96 96 97 99 99 98 98 99 99 100 99 99 99
79 80 75 70 69 63 53 53 67 79 79 77 77 79 79 83 87 91 95 95 94 95 98 99 99 97 95 95 96 95 95 93 89 86 87 88 88 93 98 98 95 95 92 87 85 85 82 74 61 46 37 34 34 36 38 41 44 47 50 55 59 65 73 80 80 81 85 88 90 93 95 97 99 99 98 99 99 97 98 98 98 98 97 97 98
87 88 80 69 67 67 63 66 80 90 89 86 89 94 96 97 97 93 90 93 96 96 97 99 100 100 100 99 99 99 99 98 96 94 95 97 98 98 100 99 96 94 92 85 77 71 63 50 34 27 31 39 44 46 50 54 58 62 64 65 64 67 73 78 81 87 93 93 92 92 92 92 95 95 94 95 97 98 99 99 99 100 99 99 100
93 93 86 76 72 73 73 77 85 88 88 91 95 99 100 97 95 92 88 90 93 92 94 98 97 96 98 98 98 99 98 96 97 97 97 96 91 88 90 91 87 84 82 69 53 46 39 26 23 37 51 56 56 59 63 67 69 70 69 67 65 65 68 71 77 86 94 94 91 91 88 87 90 91 90 92 96 98 98 98 98 99 99 99 99
98 98 91 82 77 76 76 78 82 87 93 97 97 98 96 90 86 82 79 84 89 85 83 86 87 88 89 86 83 85 89 90 90 90 90 87 80 77 77 73 64 59 56 42 29 27 24 19 33 57 65 62 63 67 71 77 79 76 73 71 69 68 67 69 73 81 90 91 88 87 89 90 90 88 87 90 95 98 98 97 98 99 99 99 100
93 94 89 84 85 88 88 88 89 93 96 94 91 93 89 80 72 67 69 79 83 76 73 77 80 84 86 82 79 79 82 84 84 85 86 84 77 72 67 59 50 45 43 34 25 23 20 23 46 67 68 65 70 74 79 86 85 79 75 76 76 73 65 61 65 74 84 89 85 85 90 94 93 89 89 93 97 98 95 93 93 95 95 95 95
90 95 95 94 97 97 94 92 88 86 84 78 74 76 74 68 66 69 73 78 79 76 78 82 83 83 83 81 80 79 78 78 77 77 79 76 71 65 56 45 37 33 32 28 24 21 18 26 52 71 71 70 78 83 87 89 83 79 78 79 78 71 61 56 60 65 72 79 85 89 90 90 90 87 88 93 97 97 96 95 93 93 92 91 90
95 99 100 100 101 96 91 86 81 79 80 75 68 68 69 69 73 79 82 82 81 81 83 83 81 76 70 65 63 62 59 59 58 58 58 55 51 46 37 27 19 15 14 12 12 14 17 27 53 74 76 77 86 93 92 88 84 84 83 77 73 69 63 59 61 65 71 80 87 90 87 84 83 81 80 84 88 88 90 92 91 91 91 92 92
99 100 98 98 97 92 85 82 81 80 82 80 75 74 75 74 80 89 91 86 80 74 69 64 59 53 47 43 42 39 36 33 34 35 34 31 27 24 21 18 14 10 8 6 10 20 24 31 52 72 78 82 91 95 93 90 89 86 81 75 72 70 65 57 52 60 77 85 85 85 82 78 77 76 75 77 78 77 77 79 79 80 81 82 84
98 97 94 93 90 86 83 82 82 81 83 83 82 81 80 79 82 85 78 64 54 49 46 42 39 35 33 29 26 23 21 19 18 18 17 14 12 12 12 10 8 8 7 7 21 40 47 48 57 68 75 80 87 92 94 93 88 82 79 76 72 67 62 55 46 50 66 76 76 76 76 73 72 71 70 70 69 67 66 66 66 66 67 69 71
91 90 88 86 83 81 80 79 78 79 80 79 75 72 70 68 67 64 52 39 34 36 38 37 35 30 26 21 18 16 15 14 13 12 12 10 8 8 11 13 20 30 32 29 37 55 63 63 65 71 76 82 86 92 95 92 85 80 77 74 69 63 60 57 51 50 58 65 65 62 58 57 57 56 53 50 48 46 46 47 50 53 57 60 62
87 87 87 86 85 85 84 82 82 81 78 71 65 60 56 51 48 46 40 32 29 28 27 27 26 23 21 20 19 17 15 14 14 13 12 12 10 11 16 25 39 57 63 57 55 61 63 63 63 68 77 85 86 87 89 86 81 77 73 71 69 66 63 60 56 55 60 62 58 50 44 44 44 44 42 40 38 36 34 32 34 41 48 54 61
86 84 82 80 78 76 73 70 69 66 61 58 58 57 51 43 37 33 29 26 25 25 24 25 25 24 24 23 21 20 18 17 16 15 15 15 14 15 24 36 46 58 65 65 62 62 62 61 61 64 73 79 80 78 79 78 75 73 72 73 73 71 68 64 59 56 58 57 52 47 45 45 47 47 47 47 48 48 46 41 37 36 39 44 51
58 55 51 48 46 45 45 45 44 42 40 39 40 39 36 32 31 31 31 32 33 33 34 35 34 32 31 29 28 27 25 22 20 19 21 23 22 22 34 49 55 58 62 64 63 63 63 63 63 66 69 72 74 74 75 75 73 74 74 74 73 70 66 60 55 53 52 50 49 48 48 49 50 52 52 52 53 55 55 53 51 48 46 46 46
30 29 29 31 32 33 33 34 34 32 32 32 32 32 32 33 35 36 36 36 37 38 40 41 41 39 36 35 35 35 33 31 27 24 28 37 41 40 46 56 61 62 65 65 64 66 67 67 68 70 70 71 73 74 74 73 73 73 72 70 67 65 60 54 51 50 48 49 51 52 52 53 54 55 56 57 58 58 59 59 58 57 56 55 53
25 26 29 32 34 33 33 35 37 38 38 39 38 38 38 38 36 37 42 46 49 51 52 51 49 46 41 39 38 38 40 40 37 33 36 46 54 57 60 65 66 66 66 65 64 67 68 68 69 70 70 70 71 71 71 71 70 69 68 66 64 63 60 56 53 50 50 53 56 56 57 59 60 60 61 61 62 63 63 63 63 63 62 61 60
37 43 47 49 50 51 53 56 59 60 59 56 54 53 51 47 44 46 53 60 62 63 63 60 56 52 49 46 45 45 47 48 47 46 48 51 56 61 67 72 74 72 69 67 66 67 67 68 70 71 71 71 71 70 69 69 69 69 69 67 66 64 61 58 56 54 56 58 60 61 63 64 65 65 66 67 68 68 67 67 67 67 66 66 66
58 64 68 68 68 69 71 72 73 74 73 71 71 70 66 60 57 57 61 64 66 68 68 64 60 57 56 55 55 55 56 55 53 53 55 57 59 62 65 69 70 69 68 69 69 68 68 68 70 72 72 72 71 71 71 70 71 72 71 70 68 66 63 62 61 61 63 65 66 67 69 70 71 72 72 72 72 72 71 70 70 69 67 67 67
68 73 76 77 76 76 76 75 73 72 72 73 73 74 73 69 66 67 70 73 75 74 70 67 65 65 64 65 65 64 63 60 57 55 56 57 56 56 58 63 67 68 69 71 70 69 69 70 70 71 72 72 72 73 73 73 74 74 73 72 70 68 66 66 66 68 69 71 72 73 75 76 76 76 76 75 75 74 74 73 72 71 69 68 67
77 78 79 78 77 74 72 71 68 64 63 63 63 67 69 67 65 65 68 74 80 80 76 71 66 63 62 62 61 60 59 58 56 55 57 58 54 51 53 61 68 71 72 72 73 72 72 73 73 74 74 74 74 74 74 74 74 74 73 73 72 70 70 70 71 72 73 74 76 76 76 75 74 73 73 73 73 74 75 74 73 73 72 71 71
67 66 64 66 70 71 70 69 68 65 64 62 60 61 61 60 59 58 60 68 77 78 72 64 59 57 57 57 55 54 52 49 48 50 52 53 54 56 62 69 73 74 74 76 77 77 76 76 76 76 76 77 76 76 76 76 76 76 76 76 75 74 74 75 75 76 76 75 74 73 72 70 70 69 68 69 70 70 70 70 71 72 73 74 75
38 42 45 51 60 64 64 64 65 66 64 62 60 59 57 56 57 57 57 63 68 68 63 58 56 58 58 57 56 55 52 51 54 58 58 58 60 64 70 73 73 73 74 76 77 78 77 77 78 78 78 79 79 80 81 81 81 81 80 79 79 78 78 77 76 75 74 72 71 70 69 68 68 66 65 65 64 63 63 65 68 72 76 78 79
38 45 47 49 54 59 61 62 62 61 60 59 59 57 55 54 55 57 59 60 61 60 59 59 60 63 64 62 60 57 56 60 68 71 71 71 70 69 69 69 69 70 72 75 78 81 82 82 82 82 82 82 83 83 84 83 83 83 81 80 79 78 77 77 75 73 71 70 69 69 69 68 67 65 63 61 59 59 59 62 68 75 81 83 84
52 57 54 50 51 53 55 57 59 58 58 57 54 53 53 55 56 58 60 60 61 63 65 66 67 68 68 66 64 61 60 65 72 74 74 75 76 75 75 76 77 78 80 81 83 86 86 86 86 85 84 84 84 84 84 83 82 82 80 80 79 79 78 77 74 71 70 70 70 70 69 68 66 65 63 61 59 57 58 63 71 79 85 87 87
59 63 62 59 58 55 51 52 56 55 52 48 47 50 55 57 57 58 60 63 66 68 70 72 74 73 70 69 69 67 65 68 73 75 77 79 80 80 81 83 85 87 89 89 89 89 88 88 88 87 87 87 86 85 85 84 84 84 84 83 82 80 79 76 74 73 73 72 71 70 69 68 66 64 61 59 57 57 62 71 77 82 86 90 91
60 62 64 65 62 54 48 50 52 51 50 50 53 57 59 58 57 58 60 63 66 66 66 68 70 70 70 71 71 70 69 71 74 77 80 84 87 87 89 90 91 92 92 91 90 90 89 89 89 89 89 89 89 88 87 87 87 87 86 85 84 82 80 78 76 75 74 72 69 68 66 63 61 59 58 58 60 66 74 79 79 81 86 93 95
63 64 66 65 57 48 48 54 57 57 59 61 60 59 59 59 59 59 59 61 63 63 63 65 68 69 71 72 71 70 69 68 68 71 76 80 83 85 86 88 91 93 94 94 94 93 93 92 91 91 90 91 91 91 89 87 87 88 87 86 85 83 80 78 76 73 71 68 65 63 60 57 56 58 62 65 70 76 81 82 83 86 92 96 95
58 58 59 58 52 49 54 63 65 62 62 62 61 61 61 60 60 61 60 61 62 62 62 65 67 68 68 67 66 65 63 61 61 65 68 69 70 69 68 68 69 70 72 75 79 83 88 90 90 90 90 90 91 91 90 88 88 88 86 85 83 81 78 76 73 69 65 61 58 56 55 55 60 68 74 77 80 84 86 87 91 94 96 96 95
54 49 45 46 52 59 65 67 66 66 64 61 60 61 60 59 59 60 59 58 58 60 62 64 65 65 64 63 63 63 63 63 64 66 66 64 63 61 58 56 55 55 56 60 66 72 78 82 84 85 86 87 88 89 88 87 86 85 84 82 80 76 72 67 62 58 54 52 53 55 58 64 72 80 84 86 89 90 89 90 92 94 94 94 96
58 53 44 38 46 61 68 67 65 65 63 59 56 57 58 59 59 59 58 58 58 61 64 65 65 65 66 67 68 66 64 64 67 69 69 67 66 63 59 57 56 57 59 65 71 76 78 81 82 82 82 83 84 83 84 84 84 83 80 76 70 64 60 56 53 52 51 50 52 57 65 73 80 84 85 87 88 87 86 88 92 92 91 91 93
62 62 54 42 43 55 63 62 59 59 58 57 57 59 60 62 62 61 61 62 63 64 66 66 66 68 69 70 70 69 65 63 65 67 66 63 62 62 61 59 60 64 68 71 73 73 73 75 77 78 79 80 80 81 82 83 80 75 69 63 58 55 53 52 52 52 52 52 55 63 74 82 86 89 90 90 89 87 89 92 94 93 91 91 92
61 64 62 56 54 60 62 59 56 57 58 58 59 60 61 62 62 62 63 64 65 67 68 68 68 69 68 67 67 67 64 60 60 63 65 64 65 68 68 65 64 66 68 67 63 60 59 63 71 75 77 77 78 79 77 73 67 62 58 55 55 54 54 52 52 53 55 56 62 73 84 90 92 94 96 96 94 94 95 97 97 95 94 93 92
59 63 64 61 59 61 62 59 58 58 59 59 60 60 60 61 62 63 64 65 66 66 66 67 67 66 65 65 65 63 60 59 63 70 76 80 83 85 83 76 69 66 63 60 57 56 58 63 68 70 69 69 71 71 68 63 60 59 59 59 59 59 57 55 54 55 58 61 67 78 89 94 96 95 94 93 95 97 97 97 98 97 94 93 92
59 62 63 61 60 59 59 58 58 58 58 59 60 59 60 61 61 59 57 57 57 57 59 62 65 67 69 70 68 65 65 68 74 80 86 89 92 93 90 85 82 79 73 67 64 67 70 72 72 71 70 71 70 68 65 64 64 64 65 67 67 65 64 63 60 58 60 64 72 83 93 96 96 94 92 91 93 95 96 96 96 92 89 91 93
Wind_Speed
31 30 30 30 29 29 28 26 25 23 22 21 21 20 18 17 18 17 16 15 15 16 17 16 15 16 16 16 15 14 14 13 11 10 11 10 8 8 8 9 9 8 7 8 8 8 9 9 10 11 12 12 12 12 11 10 10 9 8 8 8 9 10 10 12 13 10 9 11 11 12 13 12 12 12 11 9 9 10 12 13 13 13 12 11
31 30 30 30 29 28 27 26 25 24 23 22 21 20 19 17 16 17 16 15 15 16 17 16 16 16 16 16 14 14 14 14 12 10 10 9 8 7 8 8 8 8 8 9 9 9 8 8 8 9 10 10 10 10 10 9 9 9 9 9 7 7 10 10 11 13 13 11 11 11 12 14 13 12 13 13 11 10 10 12 13 13 13 13 13
28 29 30 30 29 27 27 26 25 24 23 22 20 19 18 15 15 16 15 14 14 16 16 17 17 18 17 16 14 13 14 13 11 11 11 10 9 9 9 8 8 9 9 9 9 8 7 7 7 8 8 8 8 8 9 9 9 10 10 9 8 7 9 10 10 13 15 14 13 13 13 14 13 13 13 13 12 11 10 10 12 14 14 14 14
26 27 29 29 28 27 27 26 26 25 24 23 21 19 18 16 16 17 17 17 17 18 18 18 20 20 19 19 18 15 15 14 12 11 12 12 11 11 11 9 8 9 9 8 8 8 7 6 6 6 5 6 6 7 8 8 8 9 9 10 10 9 8 9 10 12 15 16 16 15 14 13 12 11 12 12 11 10 10 10 11 13 14 16 17
26 26 28 28 28 27 27 26 25 24 22 22 22 21 20 19 19 19 20 21 20 21 21 21 22 22 20 19 17 14 14 15 14 13 14 15 14 13 11 9 9 9 8 7 7 6 5 5 5 5 5 5 5 5 6 8 8 8 9 9 10 10 9 10 11 13 15 17 17 15 13 13 12 10 11 12 11 10 10 10 10 11 13 15 16
26 26 27 28 28 26 26 26 25 22 20 20 21 23 23 22 22 21 20 20 21 23 24 23 21 20 18 16 15 13 13 15 14 14 15 15 15 13 11 10 10 9 8 7 7 5 4 5 5 5 5 6 5 5 6 8 9 9 9 10 11 12 12 13 14 15 17 18 18 17 15 15 14 12 11 12 12 11 11 10 10 10 12 14 14
27 26 26 27 27 25 24 25 25 22 20 18 18 20 22 21 20 18 17 18 19 22 22 21 19 19 17 16 16 15 15 15 14 13 13 13 14 13 12 10 9 8 8 8 8 7 5 5 5 5 6 7 7 7 7 8 10 10 10 12 13 14 16 17 17 18 19 19 20 20 19 18 17 15 14 14 14 14 13 13 13 11 12 13 13
26 25 27 28 27 24 23 24 25 24 21 18 16 18 19 19 17 16 16 18 19 20 20 19 20 20 18 16 16 16 16 16 15 14 13 13 13 13 12 10 8 7 7 7 7 7 7 6 6 6 8 8 8 9 9 10 11 11 12 13 14 16 17 18 19 20 21 22 22 22 22 21 20 19 18 17 17 15 15 16 17 15 15 15 13
27 25 26 29 28 26 24 23 24 24 23 19 17 17 18 18 17 17 18 20 20 21 21 20 20 20 18 17 17 17 15 15 15 14 13 12 12 13 13 12 10 7 5 6 6 7 7 7 7 8 9 9 10 11 11 12 13 13 14 14 15 16 17 18 20 21 21 22 23 23 24 24 23 22 22 20 18 17 16 18 19 18 18 18 16
30 27 27 29 29 28 26 25 23 24 23 21 19 17 18 19 19 18 18 20 21 21 21 21 21 20 18 16 17 16 15 14 14 14 14 13 13 14 14 13 12 9 7 7 8 8 8 8 8 8 9 10 11 12 12 14 15 15 16 16 16 18 19 21 21 21 21 22 23 23 24 25 25 24 24 22 20 19 19 20 21 21 21 22 19
34 33 31 30 30 31 30 28 25 24 23 21 20 18 18 20 21 20 19 20 21 20 20 20 19 18 18 17 16 16 16 15 15 14 14 14 14 14 14 14 13 11 11 11 10 9 9 9 9 10 11 12 13 14 15 16 17 17 18 18 19 20 21 23 24 23 23 23 24 23 24 25 26 24 23 23 22 21 21 22 23 23 23 23 23
36 36 34 32 32 33 33 31 28 27 26 23 22 21 20 21 23 24 23 22 21 19 19 19 18 18 18 18 17 16 16 16 16 16 15 15 15 15 15 16 15 13 14 14 13 12 11 10 11 12 13 14 15 16 16 17 18 19 19 19 19 20 21 23 25 25 24 25 25 25 25 25 26 25 24 24 23 23 23 23 23 25 25 25 25
37 36 35 34 33 33 33 33 30 29 27 25 24 23 23 23 24 25 25 24 23 22 21 20 19 18 18 18 18 17 17 16 16 17 17 17 17 17 17 18 17 16 16 16 14 13 12 12 13 13 14 14 15 16 18 18 18 19 19 19 19 20 20 21 21 22 22 23 24 25 25 26 27 27 26 26 26 26 26 27 26 26 26 26 27
38 37 37 36 33 31 33 33 30 28 27 26 25 24 24 24 24 25 26 26 26 25 23 22 21 20 19 19 18 18 18 18 17 17 18 19 19 18 19 20 20 19 18 17 15 14 13 14 14 14 14 15 16 16 17 18 18 18 16 16 16 16 16 16 16 16 17 18 20 21 22 23 25 26 26 26 27 27 27 27 26 25 25 25 27
38 38 38 36 32 31 31 31 29 28 27 28 28 27 27 26 25 26 27 27 27 25 24 24 22 21 21 21 20 19 19 19 18 17 18 20 20 20 20 21 21 21 20 19 17 15 15 15 15 14 14 15 15 16 16 16 15 14 12 11 11 12 12 12 12 13 13 15 16 18 20 21 23 25 25 26 27 27 27 27 26 25 25 26 27
38 38 37 34 32 30 30 30 29 28 28 29 29 29 29 29 28 28 28 27 26 25 24 24 23 23 23 22 22 22 21 21 21 20 20 22 21 20 20 21 22 21 21 19 16 15 15 15 15 14 13 13 13 13 13 12 11 10 9 8 9 10 11 11 12 12 13 14 15 17 19 20 21 23 23 23 23 22 23 22 21 21 22 24 25
38 39 38 35 32 29 28 29 28 27 27 28 29 29 30 30 28 28 29 29 28 26 23 22 22 22 22 23 23 24 23 24 24 23 23 23 22 21 20 21 22 22 20 17 15 15 14 13 12 11 10 10 9 9 9 8 7 7 6 6 7 7 8 8 9 9 10 11 12 13 15 15 16 18 18 17 16 17 17 17 15 15 16 18 20
36 38 38 36 33 28 26 27 27 27 27 27 28 29 30 31 30 28 26 25 23 22 22 21 22 22 22 23 24 25 25 26 26 25 26 25 24 22 21 22 23 22 19 16 14 13 11 9 8 7 6 6 5 5 5 5 5 5 6 6 6 6 6 7 8 8 8 9 10 12 13 14 15 16 16 13 12 14 16 16 16 16 16 17 18
35 37 37 35 32 29 27 27 28 28 28 27 28 28 30 31 29 26 22 18 16 17 18 20 23 25 26 25 24 25 26 27 27 27 27 27 26 26 25 23 21 19 17 15 12 8 6 4 3 2 2 2 3 4 5 6 6 7 7 7 8 9 9 9 10 10 10 11 13 14 15 15 15 16 17 15 12 11 13 14 15 16 17 18 18
34 36 35 33 30 29 28 28 29 29 28 27 26 27 28 26 21 20 21 21 19 18 18 18 20 24 28 29 27 26 25 26 28 29 28 28 27 25 24 23 20 17 14 10 6 5 4 2 2 3 4 5 5 6 7 8 9 9 9 9 11 13 13 13 13 13 14 15 15 15 15 15 15 16 18 18 16 15 14 13 12 12 13 14 14
33 33 31 29 27 27 27 28 28 28 27 26 23 21 20 17 15 16 18 20 19 17 17 17 15 13 16 20 22 19 15 14 19 22 22 21 19 15 15 17 16 13 10 8 7 7 6 5 6 7 8 8 8 9 9 10 10 10 10 12 15 16 16 16 16 14 13 13 14 15 15 15 16 17 18 18 19 19 18 17 16 15 15 15 15
28 28 27 25 26 26 26 25 23 21 20 19 15 12 12 11 12 12 11 10 8 6 5 6 7 5 7 9 9 7 4 4 6 7 7 8 10 12 13 13 12 10 9 9 9 8 8 8 9 10 10 11 10 10 10 10 10 11 12 14 16 17 18 18 16 14 11 10 12 14 16 17 18 19 20 21 21 20 19 18 17 17 17 17 17
23 23 24 24 24 24 22 20 17 14 12 9 7 7 9 10 10 10 8 10 12 13 14 12 11 10 10 13 13 11 10 9 9 9 8 8 9 10 11 12 11 9 9 9 8 8 7 9 10 11 12 12 11 10 10 9 9 9 12 13 15 16 18 18 17 14 10 9 11 14 17 18 19 20 20 21 20 19 18 17 17 17 16 16 16
23 21 21 21 20 18 16 15 14 12 11 11 12 13 15 16 17 15 13 12 13 14 14 13 11 10 11 13 15 14 12 10 10 10 10 9 10 12 13 13 12 10 8 8 8 8 7 9 12 13 12 12 11 10 9 7 7 8 11 12 13 16 18 19 18 15 12 11 14 16 18 19 20 20 19 18 16 15 14 14 14 14 15 15 15
21 19 18 18 19 20 19 19 19 18 18 19 19 18 17 17 17 16 14 12 13 13 13 11 10 10 12 14 16 16 15 14 14 14 14 14 15 15 14 13 11 9 7 6 7 8 8 10 12 13 12 12 11 9 7 5 6 7 8 10 12 14 18 20 19 17 14 14 15 16 17 17 18 18 17 16 15 14 13 12 12 11 11 12 13
23 23 23 23 24 25 25 24 24 24 23 23 22 21 19 18 17 17 15 14 13 13 13 13 13 14 15 16 16 16 16 15 14 14 14 14 14 13 11 10 8 7 6 6 7 9 10 11 12 12 12 12 11 8 5 4 4 3 5 8 11 14 18 19 18 16 14 14 13 13 14 14 14 14 14 14 15 15 15 15 14 14 14 13 13
28 29 30 30 29 28 28 28 28 28 28 26 25 23 20 18 18 17 16 14 15 16 16 16 16 15 15 15 14 14 14 13 12 11 11 11 10 10 9 8 7 7 6 7 9 11 12 12 11 10 10 10 9 6 3 3 3 1 4 7 11 14 17 17 16 15 14 14 13 12 12 13 14 15 16 17 16 15 16 16 16 17 16 16 15
31 32 33 32 31 30 30 30 30 30 28 26 24 23 20 18 18 18 17 16 17 17 17 16 15 14 14 14 13 13 13 12 12 11 11 10 10 10 9 9 9 9 8 8 9 9 9 9 9 9 10 9 8 7 5 5 4 1 3 6 9 12 14 15 16 16 15 15 16 16 16 17 18 19 20 20 19 18 17 17 17 17 17 16 16
33 33 33 31 30 30 29 29 29 29 28 26 25 23 21 19 19 19 18 17 17 17 17 16 16 15 15 15 14 14 14 14 13 12 12 11 11 10 10 9 9 10 9 9 8 7 8 8 9 8 9 10 9 7 6 5 3 1 5 7 9 11 13 16 18 18 18 19 21 22 22 21 21 21 21 21 21 20 20 19 18 17 17 17 16
31 31 30 30 29 28 28 28 28 28 27 26 25 23 21 19 19 19 19 19 19 19 19 19 18 17 16 16 15 14 14 13 13 13 12 12 11 11 10 9 8 9 9 7 7 7 7 8 8 8 8 9 8 7 5 3 1 3 6 8 10 13 15 17 18 19 20 22 23 23 23 24 23 23 23 24 25 24 22 21 19 18 17 18 17
29 29 29 29 29 28 28 27 26 26 25 24 24 24 24 23 23 22 22 22 21 20 20 20 19 17 16 15 14 14 13 12 12 11 11 10 10 9 9 8 7 8 8 6 6 7 7 8 9 9 8 7 6 5 3 2 4 6 8 10 13 15 16 17 17 19 20 21 22 22 23 24 24 24 25 26 27 26 24 22 21 20 19 19 19
29 28 28 28 28 28 28 27 26 25 24 24 24 24 25 26 25 24 22 21 20 20 19 18 17 15 14 13 13 12 11 11 10 10 10 9 9 9 9 7 7 7 6 5 6 8 8 8 8 7 5 4 3 3 4 5 6 8 10 12 14 15 15 15 17 19 20 20 21 21 22 23 23 24 26 26 27 27 27 26 24 23 23 22 22
29 29 29 29 29 29 28 28 27 26 24 23 22 22 22 22 23 23 23 21 20 19 18 17 16 16 14 13 12 11 11 11 10 9 9 8 7 7 7 6 7 7 5 4 5 7 7 6 6 5 4 4 4 5 6 7 8 10 11 13 14 14 14 15 18 19 19 19 20 20 21 22 23 24 25 26 26 27 27 27 27 26 25 24 23
30 30 30 30 29 29 28 27 26 25 24 23 21 20 19 19 20 22 22 20 19 18 16 16 16 15 14 13 12 11 11 11 10 10 10 9 8 8 6 5 6 7 7 6 6 7 7 7 6 5 5 5 6 7 8 10 11 12 12 13 14 14 14 15 18 19 19 19 20 20 21 22 23 23 25 25 26 26 26 27 26 26 25 24 23
28 28 27 26 26 26 25 24 23 22 21 19 18 17 18 19 19 19 17 16 16 17 16 15 15 14 13 12 11 10 10 9 9 9 9 9 9 9 8 7 7 7 7 8 8 7 7 7 6 5 5 6 6 8 9 10 11 12 12 13 13 13 13 16 18 18 18 18 19 19 20 20 20 22 23 24 24 25 25 25 25 25 25 24 23
25 24 22 22 21 21 21 21 20 20 19 17 16 16 17 18 17 16 14 14 14 15 15 14 13 12 12 11 10 8 7 6 5 5 6 6 6 5 5 5 6 6 6 7 6 6 5 5 5 5 5 6 7 8 10 11 11 11 12 12 12 12 13 16 17 17 17 18 18 18 19 20 21 22 23 24 24 24 24 23 23 23 23 23 23
21 20 19 19 20 20 20 19 19 19 18 17 16 16 17 17 16 15 15 15 14 13 13 13 12 10 9 8 5 4 3 1 0 1 2 2 1 1 1 2 3 4 5 5 4 3 2 2 2 4 5 6 8 9 11 12 12 12 12 12 12 13 14 16 17 17 17 17 18 18 20 21 22 24 25 25 26 25 24 23 23 23 22 21 21
17 17 16 16 17 19 19 18 17 17 16 15 15 15 16 16 15 15 15 15 14 14 14 12 10 8 7 6 4 4 3 2 2 1 1 0 0 1 2 3 3 4 5 5 4 2 2 1 2 3 5 7 8 9 9 9 10 10 10 10 11 12 12 12 13 13 14 16 17 18 20 21 22 23 24 25 26 25 24 24 23 23 22 21 20
14 16 16 16 16 17 17 16 15 14 13 12 12 11 12 12 13 14 16 17 17 16 14 11 8 8 7 6 5 5 4 3 2 2 2 2 2 3 2 2 3 4 4 3 2 1 2 2 3 4 5 6 7 7 7 7 7 8 8 9 10 10 11 11 13 14 15 17 18 19 21 21 22 23 24 24 24 24 23 22 21 20 20 19 19
14 16 16 15 15 15 14 13 13 12 12 11 10 10 10 11 13 15 18 18 17 15 12 10 9 9 7 5 3 5 6 5 4 4 4 4 3 3 2 2 3 4 4 3 2 1 1 2 3 4 5 5 6 6 6 7 8 8 9 11 12 13 14 15 16 17 18 19 20 22 22 23 22 22 23 23 23 22 21 20 18 17 17 17 17
14 15 14 13 12 12 12 12 12 11 11 11 10 11 12 13 14 16 16 16 15 13 11 9 9 8 6 4 3 5 6 4 4 4 5 5 5 5 5 5 4 4 3 2 1 1 1 2 3 4 5 6 6 7 8 9 10 11 12 13 14 15 16 17 18 19 20 22 23 23 23 23 22 22 23 22 21 20 19 17 16 15 15 16 16
14 13 13 12 10 10 10 11 11 10 11 12 13 14 14 14 14 14 14 13 12 11 9 8 8 6 4 3 3 5 5 5 4 4 5 5 4 4 4 3 3 3 2 2 1 1 2 3 4 5 6 6 7 8 10 11 12 13 14 15 16 17 17 18 19 20 22 23 23 24 23 23 22 22 21 20 18 17 16 15 14 14 14 14 14
13 12 12 10 9 9 10 12 12 13 14 15 15 15 14 13 13 13 12 12 11 8 7 6 5 4 2 2 4 6 6 6 5 5 4 4 3 2 2 1 1 1 1 0 1 2 4 5 6 7 8 8 9 10 11 12 14 15 16 17 17 16 17 18 20 21 22 23 23 23 23 23 21 20 18 16 15 13 13 13 13 12 12 12 11
11 11 10 9 9 11 15 17 16 16 15 15 14 13 12 12 12 12 11 10 8 6 4 3 2 1 2 3 5 8 9 8 7 6 4 3 2 2 1 2 2 3 3 4 5 6 7 8 9 9 10 10 11 11 11 13 15 16 16 16 16 17 18 20 21 22 23 23 23 23 22 20 18 16 14 13 11 11 10 11 11 11 10 10 10
9 9 8 8 10 14 17 17 16 14 13 13 12 11 10 10 9 9 8 7 6 4 4 2 1 2 3 5 7 9 10 9 9 8 6 5 5 4 3 3 4 5 6 6 7 7 8 8 8 8 9 10 11 10 11 12 14 14 15 16 17 18 19 20 21 22 22 22 21 20 18 16 14 12 11 10 10 9 9 9 9 10 11 11 11
8 8 9 11 14 16 16 15 14 13 12 11 10 10 8 7 7 6 5 4 4 3 3 2 3 4 6 7 8 9 9 10 10 10 9 9 7 6 5 5 5 6 6 6 6 7 7 7 7 7 8 8 9 10 11 12 13 14 15 17 18 19 19 20 20 20 20 19 18 16 14 12 10 9 9 9 8 8 8 8 9 10 10 11 11
8 8 9 12 15 16 15 14 13 12 11 10 10 10 9 8 6 5 4 4 3 3 3 3 4 5 6 7 7 8 9 10 10 10 10 9 8 8 7 7 8 8 7 6 6 7 8 9 9 9 10 10 11 11 12 13 14 15 15 16 16 17 17 17 17 17 17 16 14 12 11 9 8 7 7 8 8 8 8 9 9 10 10 10 11
9 8 9 12 14 15 15 14 12 11 10 10 10 10 9 8 7 6 6 5 5 4 4 3 3 4 6 8 9 10 10 10 10 9 8 7 8 8 8 8 8 8 8 8 8 9 10 11 10 10 11 12 13 13 13 13 13 13 13 13 14 14 14 14 15 15 14 13 11 9 8 7 7 7 7 8 8 9 9 9 9 10 9 10 10
10 10 11 13 14 14 14 13 11 10 10 11 10 9 9 8 8 7 6 6 4 3 1 3 4 6 8 9 9 9 9 8 7 7 7 7 7 8 8 7 6 6 6 7 8 9 10 9 9 8 9 10 10 10 9 9 9 9 10 12 13 14 14 15 14 14 13 12 9 7 6 6 7 8 9 8 7 8 9 9 9 9 9 9 9
12 13 13 13 13 13 14 13 11 11 11 11 10 10 9 8 7 5 5 4 3 3 4 6 7 8 8 8 8 7 7 6 5 5 5 6 7 8 9 9 8 8 8 10 10 10 9 9 8 8 8 7 7 6 7 7 8 9 10 12 14 15 16 16 15 15 14 12 7 5 5 6 8 9 9 8 7 8 9 9 9 9 9 9 9
14 15 15 14 13 13 13 13 12 11 11 11 10 9 8 7 6 5 5 5 4 5 6 7 8 8 7 6 6 5 5 5 5 5 5 6 7 8 10 12 12 12 13 14 15 14 13 12 13 12 11 9 9 8 8 8 8 10 12 14 15 17 18 18 17 16 15 12 7 4 5 7 9 10 9 9 9 8 8 9 9 9 10 10 10
Wind_Direction
215 214 213 214 215 215 216 218 220 220 220 221 224 227 230 230 231 233 232 227 224 227 230 231 235 238 239 243 246 245 243 240 238 240 243 239 231 233 243 248 252 252 246 245 252 259 261 260 262 266 271 277 283 287 287 287 291 295 297 297 293 283 279 280 288 298 309 313 316 323 324 324 325 321 316 315 312 301 288 282 281 282 289 297 301
217 216 215 216 217 218 219 220 221 222 222 223 225 226 226 226 227 229 231 233 230 225 226 230 237 241 240 241 243 247 247 239 234 242 247 237 229 241 252 255 260 262 259 258 263 269 272 273 273 274 275 279 282 287 290 289 290 296 301 302 299 290 287 285 287 296 305 312 314 319 323 323 324 321 315 313 312 309 297 285 279 278 284 292 297
218 218 218 218 219 219 220 221 222 223 223 223 224 222 219 220 225 228 228 234 236 231 228 231 238 243 246 245 243 245 244 232 227 242 250 241 236 246 255 257 261 263 263 263 261 262 267 272 275 273 274 279 278 282 285 283 286 295 303 306 304 298 293 290 291 296 304 310 314 317 321 322 324 325 321 318 316 315 308 293 283 281 285 292 298
219 220 220 220 220 220 221 221 222 224 225 225 222 218 218 224 233 237 235 234 238 240 239 238 241 243 244 240 235 235 231 224 224 237 249 249 242 245 255 263 265 262 262 262 257 256 260 264 267 267 272 277 273 273 278 281 287 295 300 303 301 297 294 294 301 305 307 311 313 315 317 318 322 326 326 323 321 319 316 306 293 289 292 297 303
219 221 222 221 221 220 221 221 221 223 225 227 224 219 220 226 232 237 237 234 237 242 243 241 238 238 238 238 239 240 240 239 235 230 236 242 241 245 256 261 262 259 257 257 250 245 251 260 266 270 273 274 273 277 281 283 286 290 291 290 289 290 291 296 304 307 308 310 310 309 310 310 313 321 325 322 319 319 318 314 307 304 305 307 309
220 222 223 221 220 219 220 221 220 220 223 227 225 220 219 225 231 234 234 232 235 241 243 242 241 243 250 252 250 250 251 253 246 233 232 236 238 243 252 258 260 257 255 256 247 241 254 267 271 273 270 265 263 274 287 291 291 288 283 281 283 287 291 295 301 302 304 305 303 302 306 307 306 309 316 316 314 314 313 309 309 314 315 314 314
221 224 223 219 217 217 219 219 218 218 222 226 225 223 222 223 225 228 230 231 236 240 242 245 250 255 258 255 254 255 253 250 243 236 238 239 238 242 250 256 259 257 258 258 255 256 264 265 261 258 258 261 264 273 289 300 300 294 287 283 284 287 290 294 297 299 300 299 296 296 301 303 303 305 309 309 306 306 306 303 302 306 310 311 313
223 224 221 217 216 217 218 219 217 217 223 226 225 223 220 215 217 224 230 235 239 242 244 247 251 255 255 252 256 259 251 241 235 235 238 237 237 243 247 248 250 253 255 249 246 252 252 247 250 255 264 274 279 281 289 298 300 297 293 289 287 287 290 293 296 297 297 295 293 293 297 298 299 303 306 304 301 301 301 298 296 298 301 302 303
223 223 219 215 216 218 218 218 216 217 223 226 223 218 214 215 225 234 237 238 240 242 247 250 250 251 253 251 252 254 249 240 233 233 233 229 233 239 238 234 234 233 227 222 226 237 244 250 259 268 279 287 288 289 293 296 295 294 295 295 292 291 292 294 296 296 295 292 291 292 294 294 296 301 303 302 299 299 298 295 294 295 296 296 296
216 218 218 216 216 219 221 219 216 217 221 224 224 221 219 225 233 237 236 238 240 243 247 248 247 248 251 251 249 249 249 242 234 232 233 232 235 237 233 231 230 221 207 210 224 235 245 255 262 272 283 287 286 289 294 295 293 293 295 296 295 294 294 294 294 294 292 291 291 291 291 291 294 298 300 298 296 295 295 294 293 294 295 294 294
211 213 215 215 217 222 223 219 214 217 220 222 225 224 224 229 234 233 231 233 238 242 243 242 244 247 248 250 250 249 249 245 238 235 235 236 237 235 233 234 232 224 214 215 223 230 237 245 260 276 285 285 284 285 288 290 291 292 293 295 295 294 293 292 291 290 290 290 290 290 289 289 291 293 295 296 294 292 292 292 292 293 294 294 295
210 211 213 214 216 220 220 215 212 214 218 220 223 223 222 226 231 232 232 234 238 241 240 239 243 245 246 249 250 250 250 246 239 236 235 235 237 237 236 237 236 229 225 226 227 229 235 250 269 280 283 283 282 281 282 283 285 288 291 293 293 291 289 290 290 290 290 289 289 289 289 289 290 291 293 294 293 291 290 290 291 290 291 292 294
213 211 213 215 216 215 214 212 212 215 219 221 223 224 223 224 228 231 233 236 239 242 242 240 241 242 245 249 250 249 249 249 246 243 241 238 239 241 241 241 239 235 232 232 233 236 248 263 274 279 279 278 277 276 278 282 286 291 294 293 292 290 289 290 291 291 290 288 287 287 288 289 290 290 292 292 291 291 291 291 292 292 292 294 295
215 213 213 214 214 212 210 211 216 221 224 222 221 225 228 227 228 231 235 237 239 241 242 241 239 241 246 250 250 247 247 248 248 246 243 241 240 243 243 241 239 235 233 234 237 245 258 269 275 278 276 274 275 277 283 290 296 300 301 299 296 294 294 295 294 294 293 291 290 290 289 290 290 291 292 291 290 290 290 289 290 292 295 296 296
212 212 213 213 212 211 211 212 218 225 226 223 221 225 230 231 230 232 234 236 239 242 243 243 243 244 248 250 250 248 246 245 246 245 244 241 239 239 239 237 236 234 232 234 239 250 262 270 273 273 272 276 281 287 294 300 304 308 310 307 304 303 304 303 302 302 300 298 298 298 297 297 296 296 295 293 292 290 287 285 284 284 286 287 287
211 210 212 212 211 212 213 213 217 223 224 222 222 225 229 232 232 233 234 234 235 236 236 239 241 242 244 245 245 245 243 241 242 243 241 237 235 235 235 234 234 233 231 232 241 253 260 263 265 269 277 286 293 299 305 308 311 315 316 313 312 315 316 314 315 315 314 312 310 307 306 306 306 305 302 299 298 298 298 296 294 291 289 289 290
213 212 212 212 211 211 212 212 215 219 222 224 226 228 230 232 233 234 234 231 228 228 229 232 236 239 242 242 241 240 239 238 238 238 237 233 231 230 232 233 233 230 230 234 242 249 252 256 264 277 288 297 306 314 315 317 320 324 330 334 337 339 341 343 344 344 342 338 332 327 325 327 328 326 321 313 308 311 314 314 312 304 296 295 299
214 214 212 210 210 209 212 214 215 219 223 227 229 231 233 234 233 231 231 225 220 226 235 236 236 237 237 237 236 235 236 237 235 233 231 228 225 224 225 229 230 227 228 231 234 239 247 257 274 291 301 312 327 336 339 346 353 359 6 12 17 23 26 25 20 13 7 4 4 5 8 8 5 0 352 338 323 319 319 319 317 310 303 302 307
212 213 208 205 206 210 215 218 218 219 223 226 229 233 235 235 230 226 232 236 230 231 238 239 238 237 235 233 233 232 233 235 234 232 229 225 222 220 220 222 220 215 214 219 223 227 238 254 279 308 339 13 33 42 43 41 38 39 40 40 40 39 35 29 23 18 16 17 21 27 30 29 26 23 20 13 358 339 328 323 319 313 309 309 314
208 210 206 202 204 209 214 217 219 220 223 226 231 233 234 233 229 226 236 248 249 245 247 245 237 232 229 226 223 222 223 224 224 224 223 221 219 215 212 210 202 192 192 199 197 188 195 189 136 111 99 87 79 71 64 58 55 52 50 46 44 41 36 29 24 22 22 21 22 27 32 31 28 28 28 28 24 16 8 360 350 342 334 327 327
200 204 204 200 200 204 208 214 220 224 227 230 232 232 234 240 244 241 244 251 254 254 257 252 238 222 213 209 209 212 214 214 215 216 216 214 206 190 184 187 180 169 165 161 152 154 158 141 121 113 103 92 85 79 72 66 61 56 50 46 44 39 32 27 25 24 21 17 18 25 30 29 28 29 28 27 25 20 19 18 15 11 6 359 353
194 199 200 198 199 200 203 209 215 219 223 229 230 225 224 228 229 228 229 228 215 186 174 198 197 163 134 138 154 174 170 151 171 180 176 170 155 142 143 148 144 139 141 144 142 140 136 131 124 112 102 97 90 82 75 72 68 59 50 45 40 33 26 22 20 19 19 14 13 20 28 28 29 32 31 28 26 21 18 17 16 14 13 10 7
187 192 195 195 193 192 194 199 203 203 205 207 196 171 162 163 165 164 152 145 142 131 125 133 143 137 121 114 116 126 129 124 124 125 122 121 122 123 126 127 128 136 144 146 141 133 130 134 128 113 105 101 93 86 86 86 74 56 44 39 33 29 25 21 17 15 18 19 16 21 28 28 27 28 29 28 26 24 21 20 17 12 8 5 3
180 184 186 183 176 171 171 170 167 160 149 139 135 132 128 125 127 130 128 125 128 130 131 134 138 133 122 114 113 117 121 123 124 126 127 123 118 115 116 117 118 123 132 144 153 154 152 147 135 121 112 106 100 100 101 91 65 46 39 33 26 25 25 22 17 12 10 15 19 21 23 23 22 23 24 23 21 22 25 25 18 9 3 359 357
170 166 164 159 150 145 142 138 134 130 128 130 133 133 129 126 127 130 132 130 128 127 126 127 129 122 111 105 101 101 104 108 110 111 111 110 109 109 110 110 110 113 123 149 167 173 171 159 142 126 116 113 111 111 106 87 66 51 37 23 18 20 21 18 13 9 11 17 20 20 20 19 19 19 18 14 10 9 14 17 12 4 359 357 355
152 145 142 139 136 133 130 128 126 126 128 131 132 130 131 133 132 133 135 134 129 124 121 119 115 109 103 100 98 97 97 98 98 100 102 103 104 105 108 113 120 128 138 148 154 160 161 155 144 134 128 127 127 124 112 101 96 65 23 13 11 11 12 12 10 9 15 20 19 20 20 16 12 8 5 2 2 2 4 2 358 356 355 353 352
135 131 129 128 127 126 124 124 123 122 121 122 123 123 126 129 129 128 128 125 120 117 116 115 113 110 105 101 99 98 98 98 98 99 101 103 105 110 117 128 137 143 148 151 150 151 149 146 146 148 148 148 152 158 158 148 142 82 10 8 4 3 9 16 16 14 16 17 13 10 6 357 352 350 350 350 351 353 355 354 351 351 351 348 345
124 123 121 121 121 120 120 122 121 119 117 117 116 115 116 118 118 115 111 110 113 116 116 113 109 104 97 92 94 97 100 101 102 103 104 106 109 116 123 130 134 134 135 141 147 150 149 147 152 163 168 170 177 186 190 179 165 124 12 7 5 7 13 15 12 10 10 8 3 358 353 349 349 350 350 349 347 344 345 345 344 346 346 344 342
120 119 119 118 117 118 119 119 118 118 118 118 116 113 111 111 112 109 106 105 107 108 106 101 96 94 93 94 98 102 104 104 103 102 102 103 108 116 122 128 132 127 119 118 126 136 144 147 152 164 172 174 176 177 172 164 161 13 357 1 6 8 7 3 358 357 357 356 357 358 358 359 1 3 3 2 0 357 353 349 345 343 341 340 341
121 120 119 118 118 119 118 117 118 120 120 120 119 117 114 112 111 108 106 105 104 103 100 96 93 94 97 98 96 95 95 95 95 95 96 99 103 109 113 114 117 115 110 113 122 125 129 135 139 147 156 161 162 157 147 141 86 349 352 357 1 2 1 357 355 354 354 355 356 359 2 4 7 8 8 8 7 6 4 2 358 353 349 345 342
119 119 118 117 118 119 118 118 119 119 119 120 121 119 118 116 113 109 107 105 104 103 102 100 99 98 96 95 93 91 90 91 93 95 97 99 101 105 105 104 104 104 103 111 117 109 107 119 128 131 136 138 133 119 101 44 4 360 359 358 360 0 360 1 2 1 358 355 355 358 2 5 4 3 2 2 2 2 3 4 2 360 357 355 350
115 116 117 118 117 117 117 117 117 117 117 119 120 121 121 119 115 111 109 107 106 105 103 101 99 97 95 95 95 94 94 94 97 101 103 104 106 107 104 99 95 91 90 99 101 92 92 106 116 118 118 112 92 68 35 12 6 2 358 357 358 359 1 7 10 5 359 356 357 359 1 1 359 357 356 356 356 356 356 356 356 356 356 355 354
117 117 117 116 115 115 114 113 112 112 113 114 116 117 116 115 114 113 111 108 105 103 101 99 97 95 97 100 102 104 104 102 103 107 111 111 109 105 99 94 85 77 69 71 81 75 65 66 77 78 66 52 43 27 11 5 359 354 352 354 354 354 359 6 5 0 359 360 359 357 357 356 354 352 351 351 351 350 350 350 351 352 352 352 352
118 118 117 115 115 114 114 112 110 109 109 110 111 110 106 105 109 112 111 109 108 107 104 101 99 97 97 100 102 105 107 106 105 107 109 109 105 101 102 104 96 83 74 67 63 55 42 37 41 41 30 23 16 3 352 348 345 343 342 344 345 347 353 356 354 353 355 356 354 352 351 350 348 347 347 347 346 345 344 345 346 346 347 347 347
121 119 118 118 118 118 118 117 116 116 116 116 116 114 110 106 106 107 108 108 110 112 111 107 103 100 99 98 100 103 107 111 112 113 114 114 113 114 122 126 111 87 72 64 56 47 37 30 28 21 9 357 348 339 335 332 331 330 330 333 337 340 343 345 346 346 347 346 345 345 345 344 345 345 344 343 341 340 340 340 339 339 340 340 339
124 124 123 123 123 123 123 123 122 124 125 126 127 129 127 122 117 114 112 109 108 113 116 113 109 106 104 103 105 109 111 112 113 117 120 118 114 116 124 122 102 76 61 56 51 42 33 20 4 351 341 336 334 332 331 328 327 327 327 330 332 333 336 339 341 340 340 339 339 341 341 341 342 340 338 337 336 336 336 336 334 334 334 334 332
131 132 133 133 132 130 129 126 125 125 126 125 126 130 133 132 130 127 125 121 119 120 121 117 114 113 112 109 103 93 83 71 81 165 153 141 124 96 76 84 83 72 66 66 63 52 45 32 357 337 330 330 331 328 325 323 321 321 321 323 324 327 331 334 333 332 330 330 331 332 332 332 332 331 329 329 328 329 331 331 329 330 330 328 326
139 142 142 143 144 142 138 135 133 132 131 129 128 129 129 128 127 125 125 126 126 126 127 126 123 116 106 94 69 38 14 333 290 269 246 251 52 77 84 91 94 86 81 87 93 77 49 25 328 317 318 319 318 315 312 310 309 310 312 316 320 324 325 323 320 320 321 322 325 326 326 326 326 325 325 324 323 324 326 325 324 324 324 323 321
141 145 145 146 148 147 146 145 144 145 145 141 139 136 132 126 122 120 122 126 130 134 137 134 124 108 98 92 70 29 6 356 19 45 57 66 73 82 91 88 77 65 60 65 65 22 333 304 292 295 299 301 300 299 302 305 310 314 319 322 324 324 322 320 321 323 325 326 327 327 326 326 325 325 325 325 324 324 324 322 320 318 317 317 317
138 141 143 145 145 146 147 149 149 151 151 150 148 146 139 130 125 126 129 134 139 142 141 132 119 109 105 100 58 15 9 22 50 52 47 51 53 44 22 6 8 11 10 3 350 322 296 281 282 290 297 300 305 310 317 322 326 328 327 325 324 324 325 325 327 327 326 326 326 325 326 326 325 325 326 327 326 325 323 320 316 312 310 311 311
145 143 143 145 146 148 150 152 152 152 154 154 153 150 143 136 131 133 138 143 144 143 139 130 121 115 109 93 44 13 10 24 40 30 23 27 26 20 18 21 24 27 27 24 21 7 342 327 322 322 322 324 327 328 329 328 325 323 322 322 322 323 323 324 325 324 324 324 324 324 325 325 325 325 326 327 325 322 319 316 314 310 307 309 310
153 150 146 145 148 152 155 154 154 154 154 151 148 147 147 144 142 141 144 145 144 143 141 131 120 112 100 68 21 3 4 19 26 19 21 29 25 19 22 27 33 48 67 78 82 26 342 336 336 334 330 327 323 319 317 317 317 318 319 320 320 320 321 322 322 322 322 322 323 324 326 327 328 328 328 325 321 316 314 315 315 312 311 311 313
157 155 153 152 152 151 150 148 147 146 144 140 139 144 148 148 147 149 148 144 142 144 144 134 123 111 83 32 2 354 360 10 13 14 25 42 49 51 55 36 20 54 123 190 250 283 300 309 314 315 316 316 316 314 314 316 317 318 318 317 316 318 319 320 320 321 321 323 326 328 330 331 331 331 329 324 319 319 321 321 320 318 318 318 319
157 157 158 156 147 141 143 143 142 142 141 137 135 140 145 146 146 150 152 150 148 153 158 149 136 87 13 360 347 344 349 354 356 357 360 4 5 359 336 306 294 281 276 277 279 284 291 296 299 302 306 308 309 312 314 314 313 312 313 314 316 318 320 322 324 325 327 328 330 331 333 333 333 332 331 330 330 333 336 335 334 335 333 330 329
169 167 163 156 146 142 143 144 144 145 146 144 142 141 144 148 151 154 159 162 167 182 199 209 246 312 332 338 338 341 350 358 2 4 3 0 357 350 335 316 302 293 290 291 291 292 294 295 296 299 302 302 304 308 310 309 309 311 315 319 322 325 328 329 330 331 331 331 331 332 334 334 332 333 337 339 339 340 341 343 346 347 345 342 341
156 152 147 148 147 144 141 143 148 152 153 158 161 159 157 163 168 166 170 181 193 207 221 247 297 316 326 333 337 345 355 2 4 5 7 7 7 5 358 347 335 323 314 311 309 308 308 308 308 310 310 308 309 311 313 316 320 322 325 328 330 333 335 336 335 334 334 334 333 334 336 337 337 340 345 346 343 340 340 343 347 348 348 347 346
136 128 131 143 151 151 148 148 155 159 159 163 169 168 162 163 167 167 169 182 199 216 234 262 290 307 322 336 347 355 360 359 359 4 9 11 9 3 352 340 333 329 325 324 325 323 321 319 320 321 320 319 319 321 325 329 332 333 334 337 339 342 344 344 342 340 338 335 333 333 336 339 342 344 343 341 338 336 336 340 344 346 348 352 353
138 126 125 136 147 155 157 158 161 161 159 160 163 161 158 160 166 173 182 192 203 216 231 258 299 328 345 353 356 357 356 353 354 360 5 8 10 5 352 339 334 332 332 333 332 327 324 323 321 321 322 322 324 328 333 336 339 343 349 353 354 356 357 355 351 347 342 337 333 331 334 340 343 338 333 332 332 335 338 342 345 347 350 355 359
151 146 141 139 142 149 156 159 160 160 162 165 167 166 167 171 175 182 191 197 199 211 266 328 341 343 343 343 342 340 338 337 342 349 354 1 12 12 3 352 342 331 326 328 327 322 319 318 317 320 325 330 333 338 347 353 357 5 13 14 11 9 6 2 358 354 348 342 336 331 337 346 343 334 329 331 337 343 347 346 346 350 355 357 358
164 161 158 154 154 156 161 165 167 166 170 177 181 182 183 184 184 190 204 215 231 275 300 309 311 312 314 317 319 320 321 325 338 349 354 2 11 15 13 11 11 7 2 0 360 357 353 352 356 359 0 4 14 28 38 39 37 35 31 24 19 15 11 6 2 358 353 348 339 331 340 346 336 327 327 335 344 350 351 347 345 349 353 351 350
173 169 167 167 169 171 173 176 179 179 180 185 191 196 200 205 215 231 242 249 263 279 286 292 297 303 310 319 327 335 343 354 3 8 12 15 20 23 20 16 15 15 15 17 20 23 24 25 28 30 33 43 55 59 57 52 44 37 29 23 19 16 12 8 3 359 357 354 345 328 334 339 331 323 326 337 345 347 345 342 343 345 344 339 339